WA3YML Weather Reports


time (UTC)temp
F
wind
direction
speed
knots
gust
knots
rain 1hr
in
rain 24hr
in
rain mn
in
humidity
%
barometer
mb
20260504081504 35 234 0.0 0.9 0.00 0.00 0.00 81 1014.0
20260504044504 40 210 1.7 6.1 0.00 0.00 0.00 75 1013.8
20260504043004 40 246 1.7 6.1 0.00 0.00 0.00 75 1013.5
20260504041504 40 237 0.9 5.2 0.00 0.00 0.00 75 1013.5
20260504040004 40 230 1.7 2.6 0.00 0.00 0.00 75 1013.4
20260504034504 39 234 0.9 2.6 0.00 0.00 0.00 76 1013.3
20260504033004 39 237 1.7 2.6 0.00 0.00 0.00 76 1013.3
20260504031504 39 222 1.7 5.2 0.00 0.00 0.00 75 1013.3
20260504024504 40 245 1.7 2.6 0.00 0.00 0.00 74 1013.4
20260504021503 41 246 0.9 4.3 0.00 0.00 0.00 71 1013.4
20260504014504 42 248 1.7 5.2 0.00 0.00 0.00 67 1013.2
20260504013004 44 245 0.9 2.6 0.00 0.00 0.00 64 1013.1
20260504011504 45 241 0.9 2.6 0.00 0.00 0.00 63 1013.0
20260504010004 46 238 1.7 2.6 0.00 0.00 0.00 60 1012.8
20260504004503 47 249 0.9 2.6 0.00 0.00 0.00 56 1012.9
20260504000004 50 253 1.7 5.2 0.00 0.00 0.00 52 1012.4
20260503234504 51 272 1.7 10.4 0.00 0.00 0.00 50 1012.3
20260503233004 51 232 1.7 7.8 0.00 0.00 0.00 49 1012.1
20260503231504 52 245 2.6 8.7 0.00 0.00 0.00 48 1012.1
20260503230003 53 278 2.6 8.7 0.00 0.00 0.00 47 1012.0
20260503224504 54 305 1.7 10.4 0.00 0.00 0.00 46 1012.0
20260503223003 54 249 3.5 12.2 0.00 0.00 0.00 45 1012.0
20260503221504 54 270 2.6 8.7 0.00 0.00 0.00 45 1011.9
20260503220004 54 312 1.7 7.8 0.00 0.00 0.00 45 1011.9
20260503214504 54 307 1.7 8.7 0.00 0.00 0.00 44 1011.9
20260503213004 55 319 4.3 13.9 0.00 0.00 0.00 42 1011.7
20260503210003 55 292 4.3 13.0 0.00 0.00 0.00 43 1011.6
20260503204504 55 295 2.6 10.4 0.00 0.00 0.00 41 1011.5
20260503203003 56 232 3.5 13.0 0.00 0.00 0.00 39 1011.4
20260503201504 57 245 4.3 12.2 0.00 0.00 0.00 40 1011.8
20260503200004 57 278 6.1 14.8 0.00 0.00 0.00 38 1011.8
20260503193004 54 328 4.3 13.0 0.00 0.00 0.00 42 1012.2
20260503191504 56 339 4.3 12.2 0.00 0.00 0.00 40 1012.4
20260503190004 54 277 2.6 13.0 0.00 0.00 0.00 42 1012.5
20260503184504 54 263 2.6 14.8 0.00 0.00 0.00 43 1012.8
20260503183003 53 10 5.2 18.2 0.00 0.00 0.00 44 1012.9
20260503181505 53 313 2.6 10.4 0.00 0.00 0.00 43 1013.1
20260503180004 53 300 5.2 11.3 0.00 0.00 0.00 44 1013.1
20260503174504 54 304 2.6 19.1 0.00 0.00 0.00 44 1013.2
20260503173004 51 304 4.3 11.3 0.00 0.00 0.00 45 1013.2
20260503171503 51 256 3.5 18.2 0.00 0.00 0.00 44 1013.4